Regional Weather Roundup
Issued by NWS Jackson, KY

Home | Current Version | Previous Version | Text Only | Print | Product List | Glossary Off
Versions: 1 2 3 4 5 6 7 8 9 10 11 12 13 14 15 16 17 18 19 20 21 22 23 24 25 26 27 28 29 30 31 32 33 34 35 36 37 38 39 40 41 42 43 44 45 46 47 48 49 50

000
ASUS43 KJKL 250710
RWRJKL

EAST KENTUCKY HOURLY WEATHER ROUNDUP
NATIONAL WEATHER SERVICE JACKSON KY
300 AM EDT SAT MAR 25 2017

NOTE: "FAIR" INDICATES FEW OR NO CLOUDS BELOW 12,000 FEET WITH
NO SIGNIFICANT WEATHER AND/OR OBSTRUCTIONS TO VISIBILITY.

* THESE REPORTS ARE NOT UNDER NWS QUALITY CONTROL AND MAY NOT
  REPORT WEATHER SUCH AS PRECIPITATION AND FOG.

KYZ079-080-083-085-087-088-110-112-115-119-120-250800
...EASTERN KENTUCKY...

CITY           SKY/WX    TMP DP  RH WIND       PRES   REMARKS
JACKSON        CLOUDY    61  47  59 CALM      30.19F
LONDON         PTCLDY    61  45  55 S7        30.18S
SOMERSET*      CLOUDY    59  45  58 S6        30.18S
MONTICELLO*    PTCLDY    63  48  58 SE7       30.18S
WILLIAMSBURG*  MOSUNNY   59  46  63 SE5       30.18S
MIDDLESBORO*   CLOUDY    53  48  82 CALM      30.21F
HARLAN APT*    CLOUDY    59  45  58 CALM      30.21F
PIKE CO APT*     N/A     62  48  61 S5        30.21S
BIG SANDY APT* CLOUDY    63  49  59 CALM      30.20S
MOREHEAD APT*  CLOUDY    63  46  55 S6        30.20S
ASHLAND*       CLOUDY    43 N/A N/A CALM      30.16F
$$

KYZ035-036-041-042-044-050-067-078-099-250800
...CENTRAL KENTUCKY...

CITY           SKY/WX    TMP DP  RH WIND       PRES   REMARKS
MT STERLING*   CLOUDY    59  48  67 S5        30.19S
FLEMING/MASON* CLOUDY    59  49  69 S7        30.18S
DANVILLE*      CLOUDY    57  46  67 S5        30.16F
LEXINGTON      CLOUDY    59  48  67 SE7       30.15F
FRANKFORT      PTCLDY    60  48  64 SE5       30.13S
LOUISVILLE     MOCLDY    63  49  60 SE9       30.10F
LEBANON*         N/A     61  48  63 S7        30.14S
GLASGOW*       PTCLDY    62  48  60 S6        30.11F
BOWLING GREEN  CLOUDY    63  50  62 SE9       30.09F
$$

KYZ091>093-OHZ055-061-077-WVZ005-015-034-035-042-250800
...SOUTHERN OHIO/WEST VIRGINIA...

CITY           SKY/WX    TMP DP  RH WIND       PRES   REMARKS
COVINGTON      CLOUDY    60  52  74 S8        30.12F
COLUMBUS       CLOUDY    62  52  69 S8        30.11F
DAYTON         CLOUDY    62  52  69 S13       30.10F
WILMINGTON     PTCLDY    59  51  75 S10       30.12F
HUNTINGTON     MOCLDY    64  48  56 SW5       30.18S
CHARLESTON     MOCLDY    64  47  53 CALM      30.19R
PINEVILLE*     CLOUDY    51  45  80 MISG      30.28S
BECKLEY        CLOUDY    57  45  64 S8        30.24S
BLUEFIELD      MOCLDY    54  44  69 SW5       30.27S
LOGAN CO APT*    N/A     63  48  59 CALM      30.22R
$$

VAZ002-007-008-TNZ017-027-036-066-071-250800
...SOUTHWEST VIRGINIA/EAST TENNESSEE...

CITY           SKY/WX    TMP DP  RH WIND       PRES   REMARKS
WISE*          CLOUDY    55  45  67 CALM      30.26R
JONESVILLE*      N/A     52  48  87 NE5       30.24F
ABINGDON*      CLOUDY    55  48  77 CALM      30.27R
BRISTOL        CLOUDY    53  46  77 CALM      30.25F
MORRISTOWN*    PTSUNNY   57  48  72 CALM      30.20F
SEVIERVILLE*   SUNNY     54  46  76 CALM      30.20S
KNOXVILLE      MOCLDY    58  46  64 E3        30.18F
LAFOLLETTE*    MOSUNNY   55  46  71 CALM      30.23S
OAK RIDGE      PTCLDY    54  46  74 CALM      30.21F
CROSSVILLE     CLEAR     59  46  62 S8        30.21S
NASHVILLE      MOCLDY    62  51  67 SE7       30.10F
$$

...KEY TO REMARKS...
VSB - VISIBILITY IN MILES
WCI - WIND CHILL INDEX
HX  - HEAT INDEX

$$



USA.gov is the U.S. government's official web portal to all federal, state and local government web resources and services.